Location: Central Coast NSW, Australia
(33.2407°S, 151.4316°E)
Time: 05:51:31
(UTC+10:00)

Hubble Space Telescope - Pass Details

Date: 28 March 2019
Orbit: 537 x 540 km, 28.5° (Epoch: 22 April)

Event Time Altitude Azimuth Distance (km) Brightness Sun altitude
Exits shadow 05:47:59 - 343° (NNW) 2,054 3.5 -16.4°
Reaches altitude 10° 05:49:14 10° 357° (N) 1,789 3.3 -16.2°
Maximum altitude 05:51:05 13° 24° (NNE) 1,620 3.4 -15.8°
Drops below altitude 10° 05:52:57 10° 51° (NE) 1,793 4.1 -15.4°
Sets 05:56:21 0° 79° (E) 2,688 5.9 -14.7°
